Home   Weather   49°36'N, 9°28'E   Past weeks
Flag for Germany

Past Weather in 49°36'N, 9°28'E, Germany — Yesterday and Last 2 Weeks

Now
48 °F

Passing clouds.


Feels Like: 46 °F
Forecast: 56 / 43 °F
Wind: 6 mph from Southwest

Location: Niederstetten

Current Time: Mar 23, 2019 at 9:51:34 am

Latest Report: Mar 23, 2019 at 8:20 am


Visibility: N/A

Pressure: 30.33 "Hg

Humidity: 58%

Dew Point: 34 °F

Location of 49°36'N, 9°28'ELocation

Past Weather in 49°36'N, 9°28'E — Graph

°F

49°36'N, 9°28'E Temperature Yesterday

Maximum temperature yesterday: 61 °F (at 4:20 pm)
Minimum temperature yesterday: 37 °F (at 5:20 am)
Average temperature yesterday: 50 °F

High & Low Weather Summary for the Past Weeks

 TemperatureHumidityPressure
High61 °F (Mar 22, 4:20 pm)100% (Mar 10, 9:20 am)30.54 "Hg (Mar 10, 9:20 am)
Low28 °F (Mar 20, 5:20 am)31% (Mar 21, 3:20 pm)29.53 "Hg (Mar 14, 4:20 pm)
Average42 °F74%30.02 "Hg
* Reported Mar 8 8:20 am — Mar 23 8:20 am, 49°36'N, 9°28'E. Weather by CustomWeather, © 2019

Note: Actual official high and low records may vary slightly from our data, if they occured in-between our weather recording intervals... More about our weather records

Advertising

49°36'N, 9°28'E Weather History for the Previous 24 Hours

Scroll right to see more
 ConditionsComfort  
Time TempWeatherWind HumidityBarometerVisibility
8:20 am
Sat, Mar 23
48 °FPassing clouds.6 mph58%30.33 "HgN/A
7:20 am45 °FPassing clouds.6 mph66%30.33 "HgN/A
6:20 am43 °FPassing clouds.6 mph66%30.33 "HgN/A
5:20 am43 °FQuite cool.6 mph66%30.30 "HgN/A
4:20 am41 °FQuite cool.5 mph70%30.30 "HgN/A
3:20 am41 °FQuite cool.3 mph70%30.30 "HgN/A
2:20 am43 °FQuite cool.5 mph66%30.33 "HgN/A
1:20 am43 °FQuite cool.6 mph71%30.33 "HgN/A
12:20 am45 °FPassing clouds.3 mph66%30.33 "HgN/A
11:20 pm
Fri, Mar 22
48 °FPassing clouds.5 mph62%30.33 "HgN/A
10:20 pm48 °FPassing clouds.3 mph62%30.33 "HgN/A
9:20 pm48 °FPassing clouds.5 mph62%30.36 "HgN/A
8:20 pm50 °FCool.3 mph58%30.36 "HgN/A
7:20 pm54 °FPassing clouds.7 mph51%30.36 "HgN/A
6:20 pm55 °FPassing clouds.8 mph51%30.33 "HgN/A
5:20 pm59 °FPassing clouds.9 mph45%30.33 "HgN/A
4:20 pm61 °FPassing clouds.9 mph42%30.36 "HgN/A
3:20 pm59 °FScattered clouds.9 mph42%30.36 "HgN/A
2:20 pm59 °FPartly sunny.8 mph42%30.39 "HgN/A
1:20 pm59 °FPartly sunny.7 mph39%30.42 "HgN/A
12:20 pm57 °FPartly sunny.13 mph36%30.42 "HgN/A
11:55 am57 °FPartly sunny.12 mph36%30.42 "HgN/A
11:20 am55 °FPartly sunny.9 mph36%30.42 "HgN/A
10:20 am54 °FPartly sunny.8 mph41%30.45 "HgN/A
9:20 am50 °FPartly sunny.7 mph47%30.45 "HgN/A
Weather by CustomWeather, © 2019

See weather overview